Location: Newark
(52.8300°N, 8.0000°E)
Time: 18:43:34
(UTC+00:00)

STARLINK-1070 - Pass Details

Date: 31 January 2020
Orbit: 348 x 350 km, 53.0° (Epoch: 16 February)

Event Time Altitude Azimuth Distance (km) Brightness Sun altitude
Rises 16:58:58 0° 283° (WNW) 2,162 7.8 -7.6°
Reaches altitude 10° 17:01:02 10° 276° (W) 1,318 6.8 -7.9°
Maximum altitude 17:03:50 41° 205° (SSW) 526 3.9 -8.3°
Drops below altitude 10° 17:06:37 10° 133° (SE) 1,314 5.3 -8.7°
Enters shadow 17:08:10 - 127° (SE) 1,944 6.1 -8.9°
